| time (UTC) | temp F | wind direction | speed MPH | gust MPH | rain 1hr in | rain 24hr in | rain mn in | humidity % | barometer mb |
| 20260903183014 | 85 | 94 | 10.0 | 17.0 | 0.00 | 0.00 | 0.00 | 15 | 1007.6 |
| 20260903181508 | 84 | 146 | 8.0 | 17.0 | 0.00 | 0.00 | 0.00 | 16 | 1007.8 |
| 20260903180011 | 83 | 91 | 6.0 | 13.0 | 0.00 | 0.00 | 0.00 | 16 | 1008.0 |
| 20260903174504 | 83 | 63 | 7.0 | 13.0 | 0.00 | 0.00 | 0.00 | 16 | 1008.0 |
| 20260903173002 | 83 | 100 | 7.0 | 13.0 | 0.00 | 0.00 | 0.00 | 16 | 1008.1 |
| 20260903171600 | 81 | 121 | 5.0 | 11.0 | 0.00 | 0.00 | 0.00 | 17 | 1008.3 |
| 20260903170059 | 81 | 156 | 5.0 | 12.0 | 0.00 | 0.00 | 0.00 | 18 | 1008.3 |
| 20260903164602 | 80 | 96 | 7.0 | 11.0 | 0.00 | 0.00 | 0.00 | 18 | 1008.3 |
| 20260903163055 | 80 | 132 | 5.0 | 13.0 | 0.00 | 0.00 | 0.00 | 19 | 1008.2 |
| 20260903161555 | 79 | 110 | 7.0 | 12.0 | 0.00 | 0.00 | 0.00 | 19 | 1008.2 |
| 20260903160104 | 78 | 121 | 6.0 | 10.0 | 0.00 | 0.00 | 0.00 | 20 | 1008.4 |
| 20260903154553 | 77 | 124 | 5.0 | 11.0 | 0.00 | 0.00 | 0.00 | 20 | 1008.3 |
| 20260903153052 | 77 | 93 | 4.0 | 10.0 | 0.00 | 0.00 | 0.00 | 21 | 1008.3 |
| 20260903151555 | 76 | 77 | 4.0 | 11.0 | 0.00 | 0.00 | 0.00 | 22 | 1008.3 |
| 20260903150058 | 75 | 94 | 4.0 | 9.0 | 0.00 | 0.00 | 0.00 | 22 | 1008.2 |
| 20260903144650 | 75 | 113 | 4.0 | 9.0 | 0.00 | 0.00 | 0.00 | 23 | 1008.3 |
| 20260903143049 | 74 | 91 | 4.0 | 8.0 | 0.00 | 0.00 | 0.00 | 23 | 1008.0 |
| 20260903141547 | 73 | 96 | 3.0 | 7.0 | 0.00 | 0.00 | 0.00 | 23 | 1007.9 |
| 20260903140045 | 72 | 106 | 2.0 | 6.0 | 0.00 | 0.00 | 0.00 | 24 | 1007.8 |
| 20260903134544 | 72 | 96 | 1.0 | 5.0 | 0.00 | 0.00 | 0.00 | 23 | 1007.6 |
| 20260903133043 | 72 | 71 | 3.0 | 6.0 | 0.00 | 0.00 | 0.00 | 24 | 1007.4 |
| 20260903131542 | 71 | 71 | 4.0 | 8.0 | 0.00 | 0.00 | 0.00 | 24 | 1007.2 |
| 20260903124538 | 71 | 53 | 3.0 | 7.0 | 0.00 | 0.00 | 0.00 | 24 | 1007.2 |
| 20260903123037 | 72 | 59 | 3.0 | 9.0 | 0.00 | 0.00 | 0.00 | 24 | 1007.0 |
| 20260903121543 | 72 | 103 | 4.0 | 8.0 | 0.00 | 0.00 | 0.00 | 22 | 1006.9 |
| 20260903120032 | 73 | 61 | 3.0 | 8.0 | 0.00 | 0.00 | 0.00 | 22 | 1006.9 |
| 20260903114534 | 73 | 78 | 5.0 | 10.0 | 0.00 | 0.00 | 0.00 | 22 | 1006.7 |
| 20260903113035 | 73 | 83 | 4.0 | 8.0 | 0.00 | 0.00 | 0.00 | 21 | 1006.7 |
| 20260903111524 | 76 | 63 | 3.0 | 8.0 | 0.00 | 0.00 | 0.00 | 19 | 1006.6 |
| 20260903110054 | 76 | 155 | 7.0 | 13.0 | 0.00 | 0.00 | 0.00 | 19 | 1006.5 |
| 20260903104521 | 77 | 131 | 6.0 | 13.0 | 0.00 | 0.00 | 0.00 | 19 | 1006.5 |
| 20260903103022 | 78 | 141 | 9.0 | 16.0 | 0.00 | 0.00 | 0.00 | 16 | 1006.4 |
| 20260903101518 | 78 | 123 | 9.0 | 17.0 | 0.00 | 0.00 | 0.00 | 17 | 1006.6 |
| 20260903100018 | 78 | 129 | 7.0 | 15.0 | 0.00 | 0.00 | 0.00 | 17 | 1006.6 |
| 20260903094535 | 77 | 83 | 7.0 | 11.0 | 0.00 | 0.00 | 0.00 | 17 | 1006.8 |
| 20260903093014 | 77 | 106 | 6.0 | 11.0 | 0.00 | 0.00 | 0.00 | 17 | 1006.9 |
| 20260903091513 | 77 | 134 | 6.0 | 12.0 | 0.00 | 0.00 | 0.00 | 17 | 1006.9 |
| 20260903090010 | 77 | 113 | 6.0 | 9.0 | 0.00 | 0.00 | 0.00 | 17 | 1007.1 |
| 20260903084508 | 78 | 144 | 4.0 | 7.0 | 0.00 | 0.00 | 0.00 | 16 | 1007.1 |
| 20260903083005 | 79 | 112 | 4.0 | 8.0 | 0.00 | 0.00 | 0.00 | 15 | 1007.2 |
| 20260903081504 | 79 | 103 | 4.0 | 10.0 | 0.00 | 0.00 | 0.00 | 14 | 1007.1 |
| 20260903080005 | 79 | 140 | 3.0 | 8.0 | 0.00 | 0.00 | 0.00 | 13 | 1007.2 |
| 20260903074501 | 79 | 165 | 3.0 | 13.0 | 0.00 | 0.00 | 0.00 | 12 | 1007.1 |
| 20260903073106 | 80 | 136 | 4.0 | 8.0 | 0.00 | 0.00 | 0.00 | 12 | 1007.2 |
| 20260903071558 | 80 | 158 | 3.0 | 9.0 | 0.00 | 0.00 | 0.00 | 12 | 1007.2 |
| 20260903070056 | 80 | 150 | 2.0 | 6.0 | 0.00 | 0.00 | 0.00 | 11 | 1007.2 |
| 20260903064552 | 80 | 129 | 3.0 | 6.0 | 0.00 | 0.00 | 0.00 | 10 | 1007.2 |
| 20260903063047 | 80 | 151 | 2.0 | 4.0 | 0.00 | 0.00 | 0.00 | 10 | 1007.0 |
| 20260903061552 | 82 | 164 | 2.0 | 6.0 | 0.00 | 0.00 | 0.00 | 9 | 1007.0 |
| 20260903060041 | 82 | 138 | 3.0 | 7.0 | 0.00 | 0.00 | 0.00 | 9 | 1007.0 |
| 20260903054546 | 83 | 141 | 3.0 | 9.0 | 0.00 | 0.00 | 0.00 | 9 | 1007.0 |
| 20260903053055 | 84 | 212 | 5.0 | 9.0 | 0.00 | 0.00 | 0.00 | 7 | 1006.7 |
| 20260903051528 | 84 | 153 | 4.0 | 12.0 | 0.00 | 0.00 | 0.00 | 7 | 1006.8 |
| 20260903050024 | 85 | 173 | 7.0 | 15.0 | 0.00 | 0.00 | 0.00 | 7 | 1006.8 |
| 20260903044523 | 84 | 164 | 5.0 | 11.0 | 0.00 | 0.00 | 0.00 | 8 | 1006.8 |
| 20260903043024 | 83 | 122 | 5.0 | 10.0 | 0.00 | 0.00 | 0.00 | 8 | 1006.8 |
| 20260903041515 | 84 | 123 | 6.0 | 10.0 | 0.00 | 0.00 | 0.00 | 8 | 1006.8 |
| 20260903040010 | 84 | 125 | 5.0 | 10.0 | 0.00 | 0.00 | 0.00 | 8 | 1006.7 |
| 20260903034506 | 84 | 108 | 6.0 | 11.0 | 0.00 | 0.00 | 0.00 | 7 | 1006.5 |
| 20260903033002 | 85 | 151 | 5.0 | 12.0 | 0.00 | 0.00 | 0.00 | 6 | 1006.3 |
| 20260903031557 | 86 | 179 | 9.0 | 15.0 | 0.00 | 0.00 | 0.00 | 6 | 1006.2 |
| 20260903030053 | 86 | 218 | 7.0 | 14.0 | 0.00 | 0.00 | 0.00 | 5 | 1006.1 |
| 20260903024548 | 87 | 203 | 9.0 | 20.0 | 0.00 | 0.00 | 0.00 | 5 | 1006.0 |
| 20260903023044 | 87 | 155 | 7.0 | 22.0 | 0.00 | 0.00 | 0.00 | 5 | 1005.8 |
| 20260903021550 | 87 | 97 | 8.0 | 17.0 | 0.00 | 0.00 | 0.00 | 5 | 1005.8 |
| 20260903020038 | 88 | 205 | 4.0 | 15.0 | 0.00 | 0.00 | 0.00 | 4 | 1005.9 |
| 20260903014536 | 89 | 198 | 11.0 | 23.0 | 0.00 | 0.00 | 0.00 | 4 | 1005.8 |
| 20260903013030 | 90 | 221 | 12.0 | 22.0 | 0.00 | 0.00 | 0.00 | 4 | 1006.0 |
| 20260903011537 | 91 | 136 | 8.0 | 18.0 | 0.00 | 0.00 | 0.00 | 4 | 1005.9 |
| 20260903010021 | 91 | 195 | 7.0 | 18.0 | 0.00 | 0.00 | 0.00 | 5 | 1005.9 |
| 20260903004527 | 92 | 240 | 7.0 | 15.0 | 0.00 | 0.00 | 0.00 | 5 | 1006.1 |
| 20260903003013 | 92 | 166 | 8.0 | 17.0 | 0.00 | 0.00 | 0.00 | 4 | 1005.9 |
| 20260903001508 | 91 | 234 | 14.0 | 21.0 | 0.00 | 0.00 | 0.00 | 4 | 1006.0 |
| 20260903000004 | 92 | 205 | 7.0 | 18.0 | 0.00 | 0.00 | 0.00 | 4 | 1006.1 |
| 20260902234601 | 92 | 226 | 11.0 | 17.0 | 0.00 | 0.00 | 0.00 | 4 | 1006.1 |
| 20260902233056 | 93 | 132 | 10.0 | 15.0 | 0.00 | 0.00 | 0.00 | 4 | 1006.2 |
| 20260902231554 | 92 | 139 | 9.0 | 22.0 | 0.00 | 0.00 | 0.00 | 3 | 1006.3 |
| 20260902230050 | 92 | 143 | 15.0 | 22.0 | 0.00 | 0.00 | 0.00 | 3 | 1006.5 |
| 20260902224545 | 92 | 167 | 13.0 | 23.0 | 0.00 | 0.00 | 0.00 | 3 | 1006.5 |
| 20260902223041 | 92 | 150 | 12.0 | 22.0 | 0.00 | 0.00 | 0.00 | 3 | 1006.6 |
| 20260902221538 | 92 | 158 | 13.0 | 30.0 | 0.00 | 0.00 | 0.00 | 3 | 1006.9 |
| 20260902220035 | 93 | 167 | 12.0 | 21.0 | 0.00 | 0.00 | 0.00 | 3 | 1006.9 |
| 20260902214529 | 93 | 155 | 8.0 | 22.0 | 0.00 | 0.00 | 0.00 | 3 | 1007.2 |
| 20260902213027 | 93 | 163 | 11.0 | 20.0 | 0.00 | 0.00 | 0.00 | 3 | 1007.2 |
| 20260902211522 | 92 | 216 | 11.0 | 23.0 | 0.00 | 0.00 | 0.00 | 3 | 1007.1 |
| 20260902210018 | 92 | 146 | 13.0 | 26.0 | 0.00 | 0.00 | 0.00 | 3 | 1007.3 |
| 20260902204529 | 92 | 202 | 11.0 | 25.0 | 0.00 | 0.00 | 0.00 | 4 | 1007.5 |
| 20260902203008 | 91 | 193 | 16.0 | 25.0 | 0.00 | 0.00 | 0.00 | 4 | 1007.6 |
| 20260902201503 | 91 | 162 | 11.0 | 25.0 | 0.00 | 0.00 | 0.00 | 4 | 1007.7 |
| 20260902200117 | 91 | 187 | 17.0 | 25.0 | 0.00 | 0.00 | 0.00 | 3 | 1007.8 |
| 20260902194556 | 90 | 147 | 13.0 | 25.0 | 0.00 | 0.00 | 0.00 | 4 | 1007.9 |
| 20260902193051 | 91 | 198 | 13.0 | 23.0 | 0.00 | 0.00 | 0.00 | 3 | 1008.2 |
| 20260902191549 | 91 | 192 | 12.0 | 20.0 | 0.00 | 0.00 | 0.00 | 3 | 1008.4 |
| 20260902190041 | 90 | 129 | 12.0 | 26.0 | 0.00 | 0.00 | 0.00 | 4 | 1008.6 |
| 20260902184538 | 90 | 32 | 7.0 | 18.0 | 0.00 | 0.00 | 0.00 | 4 | 1008.9 |